Location: ???????
(55.4231°N, 38.5570°E)
Time: 14:23:05
(UTC+00:00)

Cosmos 1805 - Pass Details

Date: 05 August 2024
Orbit: 480 x 483 km, 82.5° (Epoch: 19 September)

Event Time Altitude Azimuth Distance (km) Brightness Sun altitude
Exits shadow 22:48:26 24° 152° (SSE) 1,052 4.4 -15.9°
Maximum altitude 22:50:14 42° 95° (E) 701 3.9 -15.8°
Drops below altitude 10° 22:53:42 10° 23° (NNE) 1,674 7.2 -15.6°
Enters shadow 23:47:19 -71° 194° (SSW) 12,581 10.1 -12.2°
